Regional Weather Roundup
Issued by NWS

Home | Current Version | Previous Version | Graphics & Text | Print | Product List | Glossary On
Versions: 1 2 3 4 5 6 7 8 9 10 11 12 13 14 15 16 17 18 19 20 21 22 23 24 25 26 27 28 29 30 31 32 33 34 35 36 37 38 39 40 41 42 43 44 45 46 47 48 49 50
000
ASUS45 KBOU 110307
RWRCO

WEATHER ROUNDUP FOR COLORADO
NATIONAL WEATHER SERVICE DENVER/BOULDER CO
800 PM MST SAT DEC 10 2016

NOTE: "FAIR" INDICATES FEW OR NO CLOUDS BELOW 12000 FEET WITH NO
SIGNIFICANT WEATHER AND/OR OBSTRUCTIONS TO VISIBILITY.

COZ001>005-013-030-031-110400-
...NORTHWEST COLORADO...

CITY           SKY/WX    TMP DP  RH WIND       PRES   REMARKS
CRAIG          CLOUDY    37  28  70 CALM      29.83F
HAYDEN         CLOUDY    36  27  69 E3        29.82F
MEEKER         CLOUDY    41  28  60 SW14      29.84F
MOUNT WERNER   NOT AVBL
STEAMBOAT SPGS CLOUDY    33  32  96 E6        29.83F WCI  27
WALDEN           N/A     32  28  86 S10       29.82F WCI  24
$$

COZ006>008-011-110400-
...WEST CENTRAL VALLEYS...

CITY           SKY/WX    TMP DP  RH WIND       PRES   REMARKS
GRAND JUNCTION MOCLDY    30  25  81 NE5       29.93F WCI  25
MONTROSE       MOCLDY    36  27  69 SW5       29.96F
EAGLE          CLOUDY    33  32  96 E8        29.92F WCI  26
RIFLE          CLOUDY    31  27  85 CALM      29.93F
DELTA          NOT AVBL
NUCLA          FAIR      45  27  49 S3        30.01F
$$

COZ017>023-064>068-110400-
...SOUTHWEST COLORADO...

CITY           SKY/WX    TMP DP  RH WIND       PRES   REMARKS
DURANGO        FAIR      31  22  69 CALM      30.05S
CORTEZ         FAIR      31  25  78 CALM      30.04S
PAGOSA SPRINGS FAIR      30  25  81 NE5       30.08S WCI  25
TELLURIDE      MOCLDY    38  21  51 CALM      30.07S
WOLF CREEK PAS FAIR      19  19 100 S23G30    30.14F WCI   2
$$

COZ009-010-012-014-032>034-037-058>063-110400-
...CENTRAL COLORADO...

CITY           SKY/WX    TMP DP  RH WIND       PRES   REMARKS
ASPEN          CLOUDY    33  31  92 CALM      29.92F
BUENA VISTA    FAIR      40  27  59 W17G26    29.90F
COPPER MTN     NOT AVBL
BERTHOUD PASS  LGT SNOW  21   9  58 MISG      29.91S
COTTONWOOD PAS LGT SNOW  36  28  75 W17G30    29.94F
GUNNISON       FAIR      29  23  78 CALM      30.01S
KREMMLING      MOCLDY    41  34  75 SW15G24   29.86F
LEADVILLE      LGT SNOW  29  27  92 CALM      29.93F FOG
MONARCH PASS   CLOUDY    23  21  93 W39       30.13S VSB<1/4 WCI   3
SALIDA         FAIR      43  26  50 W13G21    30.00F
SUNLIGHT       CLOUDY    27  25  93 SW21G36   29.98F WCI  13
WILKERSON PASS FAIR      27  23  86 SW14G25   29.97F WCI  15
$$

COZ069>075-110400-
...SAN LUIS VALLEY/SANGRE DE CRISTO MOUNTAINS...

CITY           SKY/WX    TMP DP  RH WIND       PRES   REMARKS
ALAMOSA        FAIR      37  19  48 S15G24    29.97S
LA VETA PASS   FAIR      32  18  55 N25G47    29.97R WCI  19
SAGUACHE       FAIR      27  16  63 N7        29.99R WCI  19
$$

COZ035-036-038>040-110400-
...NORTHERN COLORADO FRONT RANGE...

CITY           SKY/WX    TMP DP  RH WIND       PRES   REMARKS
DENVER INTL AP MOCLDY    43  27  53 S7        29.71S
DMNS CITY PARK   N/A     52  27  38 N7        29.70F
AURORA         MOCLDY    44  27  52 SW5       29.72F
FRONT RANGE AP MOCLDY    50  30  46 N7        29.73F
ERIE MUNI ARPT FAIR      50  29  45 W8        29.71R
BOULDER MUN AP FAIR      52  30  43 W16G38    29.69S
CENTENNIAL     MOCLDY    43  27  53 SE10      29.72F
BROOMFIELD     MOCLDY    52  28  40 NE5       29.72S
FORT COLLINS   FAIR      32  25  74 E3        29.71S
LONGMONT       NOT AVBL
$$

COZ041-046-047-076>085-087-088-110400-
...PIKES PEAK/PALMER DIVIDE AND SOUTHERN FOOTHILLS...

CITY           SKY/WX    TMP DP  RH WIND       PRES   REMARKS
COLO. SPRINGS  MOCLDY    51  23  33 E7        29.75R
A. F. ACADEMY  FAIR      50  23  35 VRB6      29.76S
SCHRIEVER AFB  NOT AVBL
ELLICOTT       FAIR     N/A N/A N/A N13       29.73F
FALCON         FAIR      49  22  34 E13G18    29.79S
FORT CARSON    FAIR      55  21  27 NE7       29.72R
LIMON          FAIR      28  21  75 NW3       29.73S
MONUMENT HILL  FAIR      37  27  65 SW6       29.79F
TRINIDAD       FAIR      46   9  22 N12       29.77S
$$

COZ042>045-048>051-090-091-110400-
...NORTHEAST COLORADO...

CITY           SKY/WX    TMP DP  RH WIND       PRES   REMARKS
GREELEY ARPT   FAIR      25  22  88 CALM      29.72S
AKRON          FAIR      37  26  64 W6        29.70F
BURLINGTON     FAIR      29  20  69 SW7       29.71F WCI  22
WRAY           FAIR      30  28  93 W5        29.71F WCI  25
STERLING       FAIR      30  27  86 SW5       29.69F WCI  25
HOLYOKE        FAIR      34  30  86 S6        29.71F WCI  29
FORT MORGAN    FAIR      30  24  76 W5        29.71F WCI  25
$$

COZ086-089-092>099-110400-
...SOUTHEAST COLORADO...

CITY           SKY/WX    TMP DP  RH WIND       PRES   REMARKS
PUEBLO         FAIR      57  20  23 NW18      29.70F
LA JUNTA       FAIR      35  20  54 N5        29.70R WCI  31
LAMAR          FAIR      27  20  75 W3        29.67S
SPRINGFIELD      N/A     49  21  33 SW9       29.71S
$$



USA.gov is the U.S. government's official web portal to all federal, state and local government web resources and services.